QLK1820 YBBN-YBMK

Flight info

Callsign QLK1820
Flight time 1h 26m
Altitude 40000
Route BIXAD Q67 RUNLA Q493 EMSUP/N0361F200 V308 WELKE
Aircraft E190/M-SDGHIRWY/EB1

Departure

Time 2026-05-06 18:37
Airport Brisbane International Airport (YBBN)

Arrival

Time 2026-05-06 20:03
Airport Mackay Airport (YBMK)
Time Latitude Longitude Altitude Speed Heading
2026-05-06 18:15 -27.38243 153.12181 20 ft 0 kts 192°
2026-05-06 18:27 -27.38223 153.12186 22 ft 3 kts 192°
2026-05-06 18:28 -27.38205 153.12190 20 ft 3 kts 189°
2026-05-06 18:28 -27.38182 153.12193 21 ft 3 kts 170°
2026-05-06 18:28 -27.38162 153.12185 20 ft 3 kts 132°
2026-05-06 18:28 -27.38162 153.12188 21 ft 3 kts 118°
2026-05-06 18:29 -27.38167 153.12200 22 ft 0 kts 117°
2026-05-06 18:31 -27.38172 153.12211 21 ft 3 kts 117°
2026-05-06 18:31 -27.38190 153.12251 20 ft 8 kts 117°
2026-05-06 18:31 -27.38213 153.12320 20 ft 10 kts 106°
2026-05-06 18:32 -27.38246 153.12400 20 ft 12 kts 117°
2026-05-06 18:32 -27.38289 153.12493 20 ft 14 kts 117°
2026-05-06 18:32 -27.38292 153.12595 23 ft 15 kts 41°
2026-05-06 18:32 -27.38192 153.12651 20 ft 19 kts 27°
2026-05-06 18:33 -27.38071 153.12720 20 ft 20 kts 27°
2026-05-06 18:33 -27.37940 153.12797 21 ft 22 kts 27°
2026-05-06 18:33 -27.37798 153.12879 20 ft 24 kts 27°
2026-05-06 18:33 -27.37647 153.12967 20 ft 25 kts 27°
2026-05-06 18:34 -27.37488 153.13057 20 ft 26 kts 26°
2026-05-06 18:34 -27.37317 153.13150 21 ft 24 kts 25°
2026-05-06 18:34 -27.37289 153.13270 21 ft 18 kts 117°
2026-05-06 18:34 -27.37354 153.13399 21 ft 19 kts 137°
2026-05-06 18:35 -27.37454 153.13435 21 ft 10 kts 182°
2026-05-06 18:35 -27.37480 153.13424 23 ft 1 kts 209°
2026-05-06 18:35 -27.37481 153.13424 23 ft 0 kts 209°
2026-05-06 18:36 -27.37483 153.13422 22 ft 3 kts 209°
2026-05-06 18:36 -27.37683 153.13308 22 ft 70 kts 206°
2026-05-06 18:36 -27.38347 153.12928 27 ft 141 kts 207°
2026-05-06 18:36 -27.39317 153.12359 492 ft 169 kts 208°
2026-05-06 18:37 -27.40350 153.11719 1431 ft 174 kts 211°
2026-05-06 18:37 -27.41096 153.11242 1680 ft 199 kts 209°
2026-05-06 18:37 -27.42948 153.10204 2347 ft 242 kts 206°
2026-05-06 18:37 -27.44462 153.09367 3356 ft 254 kts 207°
2026-05-06 18:38 -27.46089 153.08449 4386 ft 260 kts 208°
2026-05-06 18:38 -27.47653 153.07423 5512 ft 262 kts 222°
2026-05-06 18:38 -27.48646 153.05739 6607 ft 261 kts 254°
2026-05-06 18:38 -27.48792 153.03745 7662 ft 260 kts 273°
2026-05-06 18:39 -27.48701 153.01687 8741 ft 260 kts 273°
2026-05-06 18:39 -27.48596 152.99671 9753 ft 263 kts 275°
2026-05-06 18:39 -27.48428 152.97602 10699 ft 265 kts 277°
2026-05-06 18:40 -27.47840 152.93477 12583 ft 269 kts 292°
2026-05-06 18:40 -27.46804 152.91724 13607 ft 272 kts 315°
2026-05-06 18:40 -27.45217 152.90559 14580 ft 277 kts 335°
2026-05-06 18:40 -27.43326 152.90097 15502 ft 287 kts 351°
2026-05-06 18:41 -27.41295 152.90118 16280 ft 304 kts
2026-05-06 18:41 -27.39240 152.91094 16701 ft 340 kts 31°
2026-05-06 18:41 -27.37544 152.93090 17192 ft 368 kts 51°
2026-05-06 18:41 -27.36195 152.95607 17864 ft 381 kts 56°
2026-05-06 18:42 -27.34896 152.98238 18609 ft 388 kts 56°
2026-05-06 18:42 -27.33573 153.00915 19283 ft 394 kts 56°
2026-05-06 18:42 -27.32239 153.03629 19932 ft 401 kts 55°
2026-05-06 18:42 -27.30892 153.06404 20603 ft 407 kts 55°
2026-05-06 18:43 -27.29512 153.09208 21250 ft 410 kts 50°
2026-05-06 18:43 -27.27673 153.11584 21898 ft 400 kts 33°
2026-05-06 18:43 -27.25522 153.13563 22579 ft 400 kts 29°
2026-05-06 18:43 -27.23320 153.15506 23215 ft 405 kts 28°
2026-05-06 18:44 -27.21003 153.17248 23750 ft 394 kts 14°
2026-05-06 18:44 -27.18461 153.18269 24288 ft 387 kts
2026-05-06 18:44 -27.15884 153.19180 24810 ft 390 kts
2026-05-06 18:44 -27.13286 153.20109 25324 ft 393 kts
2026-05-06 18:45 -27.10669 153.21045 25843 ft 396 kts
2026-05-06 18:45 -27.08027 153.21991 26288 ft 400 kts
2026-05-06 18:45 -27.05359 153.22944 26778 ft 404 kts
2026-05-06 18:45 -27.03581 153.23561 27089 ft 401 kts
2026-05-06 18:46 -27.00876 153.23953 27541 ft 387 kts 351°
2026-05-06 18:46 -26.98186 153.24027 28020 ft 387 kts 349°
2026-05-06 18:46 -26.94601 153.24098 28606 ft 390 kts 349°
2026-05-06 18:46 -26.92763 153.24135 28898 ft 392 kts 349°
2026-05-06 18:47 -26.89139 153.24213 29542 ft 393 kts 349°
2026-05-06 18:47 -26.87284 153.24251 29820 ft 394 kts 349°
2026-05-06 18:47 -26.84544 153.24309 30204 ft 396 kts 349°
2026-05-06 18:47 -26.81763 153.24362 30329 ft 403 kts 349°
2026-05-06 18:48 -26.78944 153.24420 30642 ft 405 kts 349°
2026-05-06 18:48 -26.76159 153.24478 30925 ft 408 kts 349°
2026-05-06 18:48 -26.73313 153.24535 31262 ft 410 kts 349°
2026-05-06 18:48 -26.70460 153.24582 31549 ft 409 kts 346°
2026-05-06 18:49 -26.67724 153.24078 31808 ft 390 kts 333°
2026-05-06 18:49 -26.65130 153.23214 32258 ft 388 kts 332°
2026-05-06 18:49 -26.62552 153.22351 32720 ft 386 kts 332°
2026-05-06 18:49 -26.59990 153.21482 33166 ft 383 kts 332°
2026-05-06 18:50 -26.57442 153.20613 33614 ft 382 kts 331°
2026-05-06 18:50 -26.54908 153.19743 33967 ft 381 kts 331°
2026-05-06 18:50 -26.52379 153.18873 34292 ft 380 kts 331°
2026-05-06 18:50 -26.49857 153.18007 34647 ft 378 kts 331°
2026-05-06 18:51 -26.47345 153.17144 35009 ft 375 kts 331°
2026-05-06 18:51 -26.44856 153.16288 35347 ft 373 kts 331°
2026-05-06 18:51 -26.42410 153.15445 35657 ft 371 kts 331°
2026-05-06 18:51 -26.39953 153.14598 35956 ft 369 kts 331°
2026-05-06 18:52 -26.37500 153.13753 36249 ft 368 kts 331°
2026-05-06 18:52 -26.35066 153.12913 36538 ft 366 kts 330°
2026-05-06 18:52 -26.32635 153.12075 36831 ft 364 kts 330°
2026-05-06 18:52 -26.30221 153.11241 37090 ft 363 kts 330°
2026-05-06 18:53 -26.27945 153.10185 37283 ft 347 kts 319°
2026-05-06 18:53 -26.26000 153.08672 37473 ft 339 kts 315°
2026-05-06 18:53 -26.24070 153.07151 37668 ft 340 kts 316°
2026-05-06 18:53 -26.22133 153.05619 37872 ft 340 kts 316°
2026-05-06 18:54 -26.20219 153.04084 38118 ft 338 kts 315°
2026-05-06 18:54 -26.18323 153.02551 38358 ft 337 kts 315°
2026-05-06 18:54 -26.16432 153.01015 38597 ft 335 kts 315°
2026-05-06 18:54 -26.14551 152.99484 38816 ft 334 kts 315°
2026-05-06 18:55 -26.12676 152.97956 38956 ft 334 kts 315°
2026-05-06 18:55 -26.10797 152.96424 39073 ft 335 kts 315°
2026-05-06 18:55 -26.08907 152.94896 39213 ft 336 kts 316°
2026-05-06 18:55 -26.07013 152.93378 39356 ft 336 kts 315°
2026-05-06 18:56 -26.05140 152.91876 39491 ft 336 kts 315°
2026-05-06 18:56 -26.03247 152.90358 39627 ft 336 kts 315°
2026-05-06 18:56 -26.01344 152.88833 39767 ft 336 kts 315°
2026-05-06 18:56 -25.99446 152.87309 39900 ft 336 kts 315°
2026-05-06 18:57 -25.97565 152.85806 40226 ft 331 kts 315°
2026-05-06 18:57 -25.93773 152.82759 40182 ft 340 kts 315°
2026-05-06 18:58 -25.89877 152.79632 40028 ft 351 kts 316°
2026-05-06 18:58 -25.85881 152.76433 40056 ft 357 kts 316°
2026-05-06 18:59 -25.81801 152.73172 40048 ft 364 kts 316°
2026-05-06 18:59 -25.77678 152.69878 40042 ft 370 kts 316°
2026-05-06 19:00 -25.73466 152.66517 40048 ft 374 kts 316°
2026-05-06 19:00 -25.69232 152.63143 40047 ft 375 kts 316°
2026-05-06 19:01 -25.64996 152.59768 40041 ft 375 kts 316°
2026-05-06 19:01 -25.60757 152.56394 40042 ft 374 kts 316°
2026-05-06 19:02 -25.56534 152.53035 40037 ft 374 kts 316°
2026-05-06 19:02 -25.52329 152.49693 40049 ft 373 kts 316°
2026-05-06 19:03 -25.48106 152.46340 40053 ft 373 kts 316°
2026-05-06 19:03 -25.43878 152.42986 40050 ft 373 kts 316°
2026-05-06 19:04 -25.39643 152.39629 40052 ft 373 kts 316°
2026-05-06 19:04 -25.35442 152.36302 40051 ft 373 kts 316°
2026-05-06 19:05 -25.31216 152.32958 40054 ft 373 kts 316°
2026-05-06 19:05 -25.26983 152.29611 40034 ft 373 kts 316°
2026-05-06 19:06 -25.22762 152.26278 40053 ft 373 kts 316°
2026-05-06 19:06 -25.18571 152.22970 40056 ft 373 kts 316°
2026-05-06 19:07 -25.14341 152.19634 40053 ft 373 kts 316°
2026-05-06 19:07 -25.10116 152.16306 40051 ft 373 kts 316°
2026-05-06 19:08 -25.05886 152.12976 40050 ft 374 kts 316°
2026-05-06 19:08 -25.01644 152.09644 40051 ft 374 kts 316°
2026-05-06 19:09 -24.97426 152.06341 40052 ft 374 kts 316°
2026-05-06 19:09 -24.93178 152.03017 40053 ft 374 kts 317°
2026-05-06 19:10 -24.88942 151.99703 40051 ft 374 kts 316°
2026-05-06 19:10 -24.84700 151.96388 40051 ft 374 kts 317°
2026-05-06 19:11 -24.80454 151.93072 40047 ft 374 kts 317°
2026-05-06 19:11 -24.76242 151.89787 40054 ft 374 kts 317°
2026-05-06 19:12 -24.71989 151.86471 40051 ft 374 kts 317°
2026-05-06 19:12 -24.67738 151.83160 40048 ft 374 kts 317°
2026-05-06 19:13 -24.63488 151.79854 40052 ft 374 kts 317°
2026-05-06 19:13 -24.59238 151.76550 40055 ft 374 kts 317°
2026-05-06 19:14 -24.54983 151.73245 40050 ft 375 kts 317°
2026-05-06 19:14 -24.50756 151.69963 40051 ft 375 kts 317°
2026-05-06 19:15 -24.46496 151.66660 40049 ft 375 kts 317°
2026-05-06 19:15 -24.42226 151.63350 40047 ft 375 kts 317°
2026-05-06 19:16 -24.37962 151.60050 40051 ft 375 kts 317°
2026-05-06 19:16 -24.33697 151.56751 40049 ft 375 kts 317°
2026-05-06 19:17 -24.29431 151.53454 40049 ft 375 kts 317°
2026-05-06 19:17 -24.25194 151.50182 40044 ft 375 kts 317°
2026-05-06 19:18 -24.20935 151.46896 40045 ft 375 kts 317°
2026-05-06 19:18 -24.16669 151.43606 40033 ft 373 kts 317°
2026-05-06 19:19 -24.12424 151.40337 40050 ft 373 kts 317°
2026-05-06 19:19 -24.08172 151.37064 40046 ft 374 kts 317°
2026-05-06 19:20 -24.03912 151.33788 40044 ft 374 kts 317°
2026-05-06 19:20 -23.99645 151.30509 40047 ft 375 kts 317°
2026-05-06 19:21 -23.95405 151.27253 40009 ft 375 kts 317°
2026-05-06 19:21 -23.91124 151.23968 40049 ft 378 kts 317°
2026-05-06 19:22 -23.86783 151.20639 40027 ft 382 kts 317°
2026-05-06 19:22 -23.82202 151.17570 40022 ft 388 kts 322°
2026-05-06 19:23 -23.77527 151.14622 40020 ft 387 kts 321°
2026-05-06 19:23 -23.72908 151.11672 40026 ft 387 kts 321°
2026-05-06 19:24 -23.68255 151.08689 40024 ft 387 kts 321°
2026-05-06 19:24 -23.63616 151.05713 40031 ft 387 kts 321°
2026-05-06 19:25 -23.58983 151.02742 40026 ft 386 kts 321°
2026-05-06 19:25 -23.54355 150.99774 40041 ft 386 kts 321°
2026-05-06 19:26 -23.49720 150.96806 40037 ft 386 kts 321°
2026-05-06 19:26 -23.45083 150.93838 40040 ft 386 kts 321°
2026-05-06 19:27 -23.40447 150.90873 40033 ft 387 kts 321°
2026-05-06 19:27 -23.35828 150.87922 40033 ft 387 kts 321°
2026-05-06 19:28 -23.31180 150.84955 40035 ft 387 kts 321°
2026-05-06 19:28 -23.26536 150.81992 40027 ft 387 kts 321°
2026-05-06 19:29 -23.21893 150.79032 40037 ft 387 kts 321°
2026-05-06 19:29 -23.17248 150.76074 40032 ft 387 kts 321°
2026-05-06 19:30 -23.12595 150.73113 40034 ft 387 kts 321°
2026-05-06 19:30 -23.07965 150.70168 40045 ft 387 kts 321°
2026-05-06 19:31 -23.03298 150.67204 40036 ft 388 kts 321°
2026-05-06 19:31 -22.96305 150.62765 40049 ft 388 kts 322°
2026-05-06 19:32 -22.91630 150.59801 40008 ft 388 kts 322°
2026-05-06 19:32 -22.87012 150.56876 40042 ft 387 kts 322°
2026-05-06 19:33 -22.82349 150.53923 40035 ft 389 kts 322°
2026-05-06 19:33 -22.77671 150.50965 40036 ft 389 kts 322°
2026-05-06 19:34 -22.73781 150.48507 40032 ft 390 kts 322°
2026-05-06 19:34 -22.68330 150.45065 40031 ft 390 kts 322°
2026-05-06 19:35 -22.64401 150.42585 40043 ft 389 kts 322°
2026-05-06 19:35 -22.59734 150.39642 40034 ft 390 kts 322°
2026-05-06 19:36 -22.55035 150.36681 40033 ft 390 kts 322°
2026-05-06 19:36 -22.50332 150.33720 40030 ft 391 kts 322°
2026-05-06 19:37 -22.47981 150.32241 39787 ft 390 kts 322°
2026-05-06 19:37 -22.45668 150.30790 39538 ft 377 kts 322°
2026-05-06 19:37 -22.43457 150.29406 39174 ft 369 kts 322°
2026-05-06 19:37 -22.41244 150.28011 38638 ft 365 kts 322°
2026-05-06 19:38 -22.39074 150.26646 38169 ft 358 kts 322°
2026-05-06 19:38 -22.36932 150.25299 37697 ft 354 kts 321°
2026-05-06 19:38 -22.34803 150.23957 37236 ft 355 kts 322°
2026-05-06 19:38 -22.32655 150.22602 36745 ft 360 kts 322°
2026-05-06 19:39 -22.30478 150.21231 36286 ft 365 kts 322°
2026-05-06 19:39 -22.28270 150.19842 35781 ft 368 kts 322°
2026-05-06 19:39 -22.26189 150.18275 35297 ft 361 kts 313°
2026-05-06 19:39 -22.24267 150.16516 34800 ft 364 kts 314°
2026-05-06 19:40 -22.22322 150.14762 34331 ft 365 kts 314°
2026-05-06 19:40 -22.20377 150.12996 33812 ft 366 kts 314°
2026-05-06 19:40 -22.18431 150.11218 33372 ft 368 kts 314°
2026-05-06 19:40 -22.16466 150.09419 32850 ft 373 kts 314°
2026-05-06 19:41 -22.14501 150.07615 32378 ft 377 kts 314°
2026-05-06 19:41 -22.12487 150.05768 31863 ft 382 kts 314°
2026-05-06 19:41 -22.10449 150.03898 31359 ft 387 kts 314°
2026-05-06 19:41 -22.08384 150.02005 30841 ft 391 kts 314°
2026-05-06 19:42 -22.06303 150.00099 30308 ft 393 kts 313°
2026-05-06 19:42 -22.04222 149.98194 29733 ft 392 kts 313°
2026-05-06 19:42 -22.02150 149.96297 29273 ft 388 kts 314°
2026-05-06 19:42 -22.00095 149.94417 28760 ft 386 kts 314°
2026-05-06 19:43 -21.98059 149.92538 28217 ft 385 kts 314°
2026-05-06 19:43 -21.96035 149.90669 27743 ft 381 kts 314°
2026-05-06 19:43 -21.94024 149.88811 27218 ft 379 kts 314°
2026-05-06 19:43 -21.92052 149.86991 26728 ft 376 kts 315°
2026-05-06 19:44 -21.90077 149.85169 26237 ft 373 kts 315°
2026-05-06 19:44 -21.88084 149.83332 25734 ft 371 kts 315°
2026-05-06 19:44 -21.86151 149.81550 25255 ft 369 kts 315°
2026-05-06 19:44 -21.84202 149.79755 24760 ft 367 kts 316°
2026-05-06 19:45 -21.82266 149.77972 24278 ft 365 kts 316°
2026-05-06 19:45 -21.80338 149.76198 23792 ft 363 kts 316°
2026-05-06 19:45 -21.78421 149.74434 23275 ft 361 kts 317°
2026-05-06 19:45 -21.76525 149.72694 22834 ft 357 kts 317°
2026-05-06 19:46 -21.74639 149.70959 22354 ft 355 kts 317°
2026-05-06 19:46 -21.72766 149.69239 21886 ft 353 kts 317°
2026-05-06 19:46 -21.70908 149.67532 21422 ft 350 kts 317°
2026-05-06 19:46 -21.69060 149.65835 20955 ft 348 kts 317°
2026-05-06 19:47 -21.67230 149.64156 20485 ft 345 kts 317°
2026-05-06 19:47 -21.65411 149.62486 20040 ft 342 kts 317°
2026-05-06 19:47 -21.63610 149.60835 19585 ft 338 kts 317°
2026-05-06 19:47 -21.61795 149.59264 19145 ft 334 kts 322°
2026-05-06 19:48 -21.59866 149.57935 18707 ft 332 kts 325°
2026-05-06 19:48 -21.57915 149.56612 18262 ft 330 kts 324°
2026-05-06 19:48 -21.55995 149.55282 17825 ft 327 kts 324°
2026-05-06 19:48 -21.54086 149.53945 17392 ft 327 kts 324°
2026-05-06 19:49 -21.52178 149.52601 16956 ft 326 kts 324°
2026-05-06 19:49 -21.50286 149.51264 16527 ft 325 kts 324°
2026-05-06 19:49 -21.48401 149.49928 16097 ft 324 kts 324°
2026-05-06 19:49 -21.46525 149.48601 15668 ft 323 kts 324°
2026-05-06 19:50 -21.44651 149.47271 15241 ft 322 kts 324°
2026-05-06 19:50 -21.42782 149.45947 14806 ft 319 kts 324°
2026-05-06 19:50 -21.40975 149.44667 14385 ft 311 kts 324°
2026-05-06 19:50 -21.39187 149.43400 13979 ft 304 kts 324°
2026-05-06 19:51 -21.37447 149.42168 13559 ft 297 kts 324°
2026-05-06 19:51 -21.35746 149.40960 13192 ft 289 kts 325°
2026-05-06 19:51 -21.34083 149.39782 12805 ft 285 kts 325°
2026-05-06 19:51 -21.32431 149.38609 12433 ft 285 kts 325°
2026-05-06 19:52 -21.30759 149.37446 12057 ft 287 kts 330°
2026-05-06 19:52 -21.28917 149.36591 11690 ft 290 kts 339°
2026-05-06 19:52 -21.26998 149.35884 11279 ft 293 kts 340°
2026-05-06 19:52 -21.25070 149.35167 10897 ft 293 kts 340°
2026-05-06 19:53 -21.23148 149.34440 10506 ft 292 kts 340°
2026-05-06 19:53 -21.21231 149.33708 10110 ft 292 kts 340°
2026-05-06 19:53 -21.19314 149.32972 9709 ft 294 kts 341°
2026-05-06 19:53 -21.17395 149.32233 9334 ft 293 kts 341°
2026-05-06 19:54 -21.15474 149.31491 8945 ft 293 kts 341°
2026-05-06 19:54 -21.13558 149.30754 8550 ft 292 kts 341°
2026-05-06 19:54 -21.11646 149.30016 8168 ft 292 kts 340°
2026-05-06 19:54 -21.09911 149.28896 7723 ft 293 kts 319°
2026-05-06 19:55 -21.08534 149.27312 7389 ft 290 kts 310°
2026-05-06 19:55 -21.07224 149.25666 6978 ft 291 kts 311°
2026-05-06 19:55 -21.05882 149.24051 6596 ft 289 kts 313°
2026-05-06 19:55 -21.04541 149.22487 6211 ft 288 kts 313°
2026-05-06 19:56 -21.03167 149.20901 5833 ft 285 kts 314°
2026-05-06 19:56 -21.01836 149.19379 5472 ft 282 kts 314°
2026-05-06 19:56 -21.00496 149.17849 5076 ft 281 kts 314°
2026-05-06 19:56 -20.99167 149.16327 4685 ft 279 kts 311°
2026-05-06 19:57 -20.98236 149.14551 4322 ft 275 kts 283°
2026-05-06 19:57 -20.98288 149.12581 3898 ft 259 kts 248°
2026-05-06 19:57 -20.99223 149.11061 3626 ft 235 kts 223°
2026-05-06 19:57 -21.00347 149.09895 3343 ft 217 kts 220°
2026-05-06 19:58 -21.01574 149.09039 3101 ft 203 kts 199°
2026-05-06 19:58 -21.02914 149.08808 2915 ft 189 kts 173°
2026-05-06 19:58 -21.04120 149.09229 2718 ft 179 kts 149°
2026-05-06 19:58 -21.05136 149.09930 2535 ft 167 kts 144°
2026-05-06 19:59 -21.06048 149.10622 2336 ft 152 kts 144°
2026-05-06 19:59 -21.06871 149.11244 2176 ft 137 kts 144°
2026-05-06 19:59 -21.07598 149.11776 2051 ft 121 kts 146°
2026-05-06 19:59 -21.08282 149.12270 1851 ft 119 kts 146°
2026-05-06 20:00 -21.08962 149.12771 1710 ft 118 kts 146°
2026-05-06 20:00 -21.09654 149.13261 1619 ft 121 kts 147°
2026-05-06 20:00 -21.10372 149.13735 1460 ft 121 kts 148°
2026-05-06 20:00 -21.11081 149.14204 1257 ft 119 kts 148°
2026-05-06 20:01 -21.11783 149.14672 1059 ft 118 kts 149°
2026-05-06 20:01 -21.12481 149.15142 920 ft 119 kts 148°
2026-05-06 20:01 -21.13177 149.15619 818 ft 120 kts 149°
2026-05-06 20:01 -21.13888 149.16094 654 ft 122 kts 150°
2026-05-06 20:02 -21.14606 149.16578 463 ft 120 kts 150°
2026-05-06 20:02 -21.15303 149.17062 288 ft 117 kts 149°
2026-05-06 20:02 -21.15998 149.17531 134 ft 121 kts 150°
2026-05-06 20:02 -21.16713 149.18009 27 ft 112 kts 149°
2026-05-06 20:03 -21.17206 149.18345 24 ft 57 kts 150°
2026-05-06 20:03 -21.17402 149.18476 24 ft 19 kts 148°
2026-05-06 20:03 -21.17485 149.18513 23 ft 11 kts 203°
2026-05-06 20:03 -21.17538 149.18445 22 ft 13 kts 238°
2026-05-06 20:04 -21.17579 149.18374 24 ft 6 kts 238°
2026-05-06 20:04 -21.17600 149.18341 24 ft 5 kts 227°
2026-05-06 20:04 -21.17625 149.18321 27 ft 3 kts 223°
2026-05-06 20:04 -21.17625 149.18302 27 ft 2 kts 280°
2026-05-06 20:05 -21.17620 149.18281 26 ft 2 kts 286°
2026-05-06 20:12 -21.17620 149.18280 26 ft 0 kts 286°
2026-05-06 20:14 -21.17620 149.18281 27 ft 0 kts 287°